sat.trackr.live / text

‹ back to catalog

STARLINK-33884

NORAD 63770 · 2025-089V

PAYLOAD ACTIVE UNKNOWN

§ Identity

Operator
Country
US
Launch date
2025-04-29
Launch site
AFETR
Launch vehicle
Mass (kg)
RCS (m²)

Purposes: comms

External: N2YO · Heavens-Above · Gunter

§ Orbital elements

Epoch: 2026-09-20T15:05:09.242016Z

Period
94.27 min
Inclination
43.0008°
Eccentricity
0.0000894
Mean motion
15.27590695 rev/d
Perigee alt
482.4 km
Apogee alt
483.6 km
Semi-major
6,861.2 km
B*
5.6339e-4
RAAN
24.0850°
Arg perigee
269.2181°
Mean anomaly
90.8569°
Rev number
7,872

§ Raw data

STARLINK-338841 63770U 25089V   26263.62857919  .00015278  00000+0  56339-3 0  99942 63770  43.0008  24.0850 0000894 269.2181  90.8569 15.27590695 78729

JSON: /api/v1/satellites/63770 · /tle

For live sub-satellite position, see the globe view (requires WebGL).

§ Visibility from observer

Set your observer location to see the next 7 days of passes ≥ 10°. The values pass through the URL so the page stays shareable.

No JS? Fill the form by hand. The geolocation button needs JavaScript.